Погода в Мостаре

Босния и Герцеговина     43°20′56″N   17°47′26″E
темп.,
°C
ветер,
м/с
пор.,
м/с
влажн.,
%
обл.,
%
осадки,
мм/ч
давл.,
гПа
погр.,
м
1 марта, пн
пн101:00+3ссв23700 0.0 103143
04:00+3ссв23710 0.0 103040
07:00+3ссв22700 0.0 103043
10:00+10с24440 0.0 1030522
13:00+14ссв35320 0.0 1029967
16:00+13ссв46460 0.0 1028561
19:00+8св59610 0.0 1030220
22:00+5св37700 0.0 1032204
2 марта, вт
вт201:00+4ссв34730 0.0 103390
04:00+3св33740 0.0 103362
07:00+2ссв33740 0.0 103463
10:00+10с23460 0.0 1033571
13:00+14з12350 0.0 1033939
16:00+13юз22440 0.0 1032482
19:00+7св11650 0.0 103322
22:00+6св22630 0.0 103430
3 марта, ср
ср301:00+5св22630 0.0 103328
04:00+4ссв22610 0.0 103225
07:00+4св22570 0.0 103224
10:00+11зюз11410 0.0 1031278
13:00+14юз11380 0.0 1029491
16:00+14ююз11430 0.0 1028454
19:00+8в01640 0.0 102922
22:00+7св11660 0.0 102822
4 марта, чт
чт401:00+6всв11670 0.0 102722
04:00+5св11660 0.0 102622
07:00+5св11660 0.0 102522
10:00+11юз115110 0.0 1024362
13:00+13юз224214 0.0 1022894
16:00+12юз225128 0.0 1020599
19:00+7зюз007452 0.0 102122
22:00+6в118022 0.0 102122
5 марта, пт
пт501:00+5всв118221 0.0 102022
04:00+5всв1174100 0.0 101922
07:00+5св1169100 0.0 101923
10:00+11ю1257100 0.0 1018553
13:00+12ююз2364100 0.1 10171036
16:00+11ююз247399 1.1 1016772
19:00+9всв118693 2.3 101722
22:00+7св1185100 0.1 101822